Regional Weather Roundup
Issued by NWS

Home | Current Version | Previous Version | Graphics & Text | Print | Product List | Glossary On
Versions: 1 2 3 4 5 6 7 8 9 10 11 12 13 14 15 16 17 18 19 20 21 22 23 24 25 26 27 28 29 30 31 32 33 34 35 36 37 38 39 40 41 42 43 44 45 46 47 48 49 50
000
ASUS43 KLMK 261810
RWRKY
KENTUCKY REGIONAL WEATHER ROUNDUP
NATIONAL WEATHER SERVICE LOUISVILLE KY
200 PM EDT SUN APR 26 2015

NOTE "FAIR" INDICATES FEW OR NO CLOUDS BELOW 12,000 FEET
WITH NO SIGNIFICANT WEATHER AND/OR OBSTRUCTIONS TO VISIBILITY.

KYZ001>023-026-027-061>063-070>075-261900-
WESTERN AND SOUTH CENTRAL KENTUCKY

CITY           SKY/WX    TMP DP  RH WIND       PRES   REMARKS
PADUCAH        CLOUDY    57  46  66 N12       29.87F
HENDERSON      SUNNY     59  39  47 N12       29.87F
OWENSBORO      SUNNY     60  39  45 NE10      29.87F
HOPKINSVILLE   CLOUDY    54  46  76 N10       29.85F
BOWLING GREEN  CLOUDY    57  45  64 N8        29.85S
GLASGOW        CLOUDY    56  44  62 NW7       29.84S
$$

KYZ024-025-028>034-038-045-046-053-261900-
NORTH CENTRAL KENTUCKY

CITY           SKY/WX    TMP DP  RH WIND       PRES   REMARKS
LOUISVILLE/SDF MOSUNNY   62  38  40 N12G17    29.85S
LOUISVILLE/LOU SUNNY     60  36  40 VRB7G17   29.86R
FORT KNOX      SUNNY     59  37  43 NE10      29.83S
$$

KYZ035>037-039>044-047>052-055>060-089>105-261900-
NORTHEAST KENTUCKY

CITY           SKY/WX    TMP DP  RH WIND       PRES   REMARKS
LEXINGTON      SUNNY     58  39  49 N9        29.83R
COVINGTON      MOSUNNY   58  36  43 NE10      29.85S
FRANKFORT      SUNNY     60  38  43 N13G20    29.82S
$$

KYZ054-064>069-076>088-106>120-261900-
SOUTHEAST KENTUCKY

CITY           SKY/WX    TMP DP  RH WIND       PRES   REMARKS
JACKSON        CLOUDY    55  39  54 VRB5      29.78F
LONDON         PTSUNNY   56  41  57 N8        29.80R
SOMERSET       CLOUDY    54  43  66 NE10      29.82S
MIDDLESBORO    CLOUDY    52  47  83 N10       29.78S
MONTICELLO     CLOUDY    53  47  80 N6        29.85R
$$



USA.gov is the U.S. government's official web portal to all federal, state and local government web resources and services.